Sussex, NJ

6:41 PM EST on November 18, 2019 (GMT -0500)
Sussex

Weather History for KFWN - September, 2019

Change the Weather History Date:

Tuesday, September 17, 2019

  Actual Average Record
Temperature  
Mean Temperature 62 °F -  
Max Temperature 78 °F 72 °F 94 °F (1991)
Min Temperature 48 °F 47 °F 31 °F (1964)
Degree Days  
Heating Degree Days 2    
Growing Degree Days 12 (Base 50)    
Moisture  
Dew Point 50 °F    
Average Humidity 83    
Maximum Humidity 100    
Minimum Humidity 30    
Precipitation  
Precipitation 0.00 in - - ()
Sea Level Pressure  
Sea Level Pressure 30.13 in    
Wind  
Wind Speed 1 mph ()    
Max Wind Speed 9 mph    
Max Gust Speed -    
Visibility 5.1 miles    
Events Fog    
Averages and records for this station are not official NWS values.
T = Trace of Precipitation, MM = Missing Value Source: Averaged Metar Reports

Daily Weather History Graph

Daily Weather History Graph

Search for Another Location

Airport or City:

Astronomy

Sep. 17, 2019 Rise Set
Actual Time 6:40 AM EDT 7:04 PM EDT
Civil Twilight 6:13 AM EDT 7:32 PM EDT
Nautical Twilight 5:40 AM EDT 8:04 PM EDT
Astronomical Twilight 5:07 AM EDT 8:37 PM EDT
Moon 9:04 PM EDT (9/17) 9:44 AM EDT (9/17)
Length of Visible Light 13h 19m
Length of Day
12h 23m
Waning Gibbous, 89% of the Moon is Illuminated
Sep 17
Waning Gibbous
Sep 21
Last Quarter
Sep 28
New
Oct 5
First Quarter
Oct 13
Full

Hourly Weather History & Observations

Time (EDT) Temp. Dew Point Humidity Pressure Visibility Wind Dir Wind Speed Gust Speed Precip Events Conditions
12:00 AM 57.9 °F 57.0 °F 97% 30.09 in 6.0 mi Calm Calm - N/A   Partly Cloudy
12:53 AM 57.9 °F 55.9 °F 93% 30.09 in 9.0 mi Calm Calm - N/A   Clear
1:17 AM 55.9 °F 55.0 °F 97% 30.10 in 2.0 mi Calm Calm - N/A   Clear
1:39 AM 55.0 °F 53.1 °F 93% 30.10 in 1.0 mi Calm Calm - N/A   Mist
1:46 AM 55.0 °F 53.1 °F 93% 30.11 in 0.2 mi Calm Calm - N/A Fog Fog
1:53 AM 55.9 °F 54.0 °F 93% 30.10 in 0.5 mi Calm Calm - N/A Fog Fog
1:58 AM 55.9 °F 54.0 °F 93% 30.11 in 1.5 mi Calm Calm - N/A   Mostly Cloudy
2:00 AM 55.9 °F 54.0 °F 93% 30.11 in 4.0 mi Calm Calm - N/A   Mostly Cloudy
2:45 AM 54.0 °F 53.1 °F 97% 30.11 in 2.0 mi Calm Calm - N/A   Clear
2:53 AM 53.1 °F 52.0 °F 96% 30.11 in 8.0 mi Calm Calm - N/A   Clear
3:00 AM 54.0 °F 52.0 °F 93% 30.11 in 1.2 mi Calm Calm - N/A   Partly Cloudy
3:07 AM 54.0 °F 52.0 °F 93% 30.11 in 0.2 mi Calm Calm - N/A Fog Fog
3:15 AM 54.0 °F 52.0 °F 93% 30.11 in 2.0 mi Calm Calm - N/A   Partly Cloudy
3:25 AM 53.1 °F 51.1 °F 93% 30.11 in 1.0 mi Calm Calm - N/A   Mist
3:30 AM 54.0 °F 52.0 °F 93% 30.11 in 1.5 mi Calm Calm - N/A   Partly Cloudy
3:42 AM 52.0 °F 51.1 °F 97% 30.11 in 1.2 mi Calm Calm - N/A   Clear
3:44 AM 52.0 °F 51.1 °F 97% 30.11 in 2.5 mi Calm Calm - N/A   Clear
3:51 AM 51.8 °F 50.0 °F 94% 30.11 in 4.0 mi Calm Calm - N/A   Clear
3:53 AM 52.0 °F 50.0 °F 93% 30.11 in 4.0 mi Calm Calm - N/A   Clear
4:03 AM 52.0 °F 51.1 °F 97% 30.11 in 1.8 mi Calm Calm - N/A   Clear
4:11 AM 53.1 °F 51.1 °F 93% 30.11 in 1.0 mi Calm Calm - N/A   Clear
4:14 AM 53.1 °F 51.1 °F 93% 30.11 in 2.5 mi Calm Calm - N/A   Clear
4:21 AM 53.1 °F 51.1 °F 93% 30.11 in 9.0 mi Calm Calm - N/A   Clear
4:53 AM 52.0 °F 50.0 °F 93% 30.12 in 1.2 mi Calm Calm - N/A   Partly Cloudy
5:00 AM 52.0 °F 50.0 °F 93% 30.12 in 0.2 mi Calm Calm - N/A Fog Fog
5:20 AM 51.1 °F 50.0 °F 96% 30.13 in 1.2 mi Calm Calm - N/A   Partly Cloudy
5:23 AM 51.1 °F 50.0 °F 96% 30.13 in 2.0 mi Calm Calm - N/A   Partly Cloudy
5:31 AM 50.0 °F 48.9 °F 96% 30.13 in 9.0 mi Calm Calm - N/A   Partly Cloudy
5:53 AM 50.0 °F 48.9 °F 96% 30.14 in 2.5 mi Calm Calm - N/A   Clear
6:04 AM 50.0 °F 48.9 °F 96% 30.14 in 8.0 mi Calm Calm - N/A   Clear
6:37 AM 50.0 °F 48.0 °F 93% 30.15 in 2.0 mi Calm Calm - N/A   Clear
6:39 AM 50.0 °F 48.0 °F 93% 30.15 in 1.2 mi Calm Calm - N/A   Clear
6:46 AM 50.0 °F 48.0 °F 93% 30.15 in 0.2 mi Calm Calm - N/A Fog Fog
6:53 AM 50.0 °F 48.0 °F 93% 30.15 in 0.8 mi Calm Calm - N/A   Clear
6:55 AM 50.0 °F 48.0 °F 93% 30.15 in 1.5 mi Calm Calm - N/A   Clear
6:57 AM 48.9 °F 48.0 °F 97% 30.15 in 4.0 mi Calm Calm - N/A   Clear
7:11 AM 50.0 °F 48.9 °F 96% 30.16 in 1.2 mi Calm Calm - N/A   Clear
7:22 AM 50.0 °F 50.0 °F 100% 30.16 in 2.0 mi Calm Calm - N/A   Clear
7:29 AM 51.1 °F 51.1 °F 100% 30.17 in 10.0 mi Calm Calm - N/A   Clear
7:53 AM 53.1 °F 53.1 °F 100% 30.17 in 10.0 mi Calm Calm - N/A   Clear
8:53 AM 60.1 °F 54.0 °F 80% 30.18 in 10.0 mi Calm Calm - N/A   Clear
9:53 AM 64.9 °F 50.0 °F 58% 30.18 in 10.0 mi Variable 4.6 mph - N/A   Clear
10:53 AM 69.1 °F 45.0 °F 42% 30.18 in 10.0 mi NNE 8.1 mph - N/A   Clear
11:53 AM 71.1 °F 44.1 °F 38% 30.17 in 10.0 mi NE 8.1 mph - N/A   Clear
12:53 PM 72.0 °F 46.0 °F 40% 30.16 in 10.0 mi North - - N/A   Clear
1:53 PM 75.0 °F 46.9 °F 37% 30.14 in 10.0 mi ENE 9.2 mph - N/A   Clear
2:53 PM 75.0 °F 45.0 °F 34% 30.11 in 10.0 mi ESE 3.5 mph - N/A   Clear
3:53 PM 77.0 °F 43.0 °F 30% 30.10 in 10.0 mi North - - N/A   Clear
4:53 PM 75.9 °F 46.0 °F 35% 30.09 in 10.0 mi ESE 5.8 mph - N/A   Clear
5:53 PM 75.0 °F 48.0 °F 38% 30.09 in 10.0 mi East 3.5 mph - N/A   Clear
6:53 PM 69.1 °F 48.0 °F 47% 30.12 in 10.0 mi NNE 6.9 mph - N/A   Clear
7:53 PM 62.1 °F 50.0 °F 65% 30.14 in 10.0 mi Calm Calm - N/A   Clear
8:53 PM 57.0 °F 50.0 °F 77% 30.16 in 10.0 mi Calm Calm - N/A   Clear
9:53 PM 54.0 °F 48.9 °F 83% 30.17 in 10.0 mi Calm Calm - N/A   Clear
10:53 PM 51.1 °F 48.0 °F 89% 30.18 in 10.0 mi Calm Calm - N/A   Clear
11:53 PM 50.0 °F 46.9 °F 89% 30.19 in 10.0 mi Calm Calm - N/A   Clear